Regional Weather Roundup
Issued by NWS

Home | Current Version | Previous Version | Graphics & Text | Print | Product List | Glossary On
Versions: 1 2 3 4 5 6 7 8 9 10 11 12 13 14 15 16 17 18 19 20 21 22 23 24 25 26 27 28 29 30 31 32 33 34 35 36 37 38 39 40 41 42 43 44 45 46 47 48 49 50
000
ASUS44 KMEG 280600
RWRTN
TENNESSEE HOURLY STATE WEATHER ROUNDUP
NATIONAL WEATHER SERVICE MEMPHIS TN
1200 AM CST SAT FEB 28 2015

TNZ002-004-019-021-049-052-054-088>092-280700-
WEST TENNESSEE

CITY           SKY/WX    TMP DP  RH WIND       PRES   REMARKS
MEMPHIS INTL   CLOUDY    29  13  51 NE10      30.53F WCI  20
NWS MEMPHIS      N/A     27 N/A N/A MISG        N/A
JACKSON        CLOUDY    28  11  48 E8        30.55F WCI  20
DYERSBURG      CLOUDY    25   5  42 NE9       30.58S WCI  15
UNION CITY     CLOUDY    21  12  68 NE8       30.57F WCI  12
PARIS          CLOUDY    21   9  58 NE8       30.57S WCI  12
LEXINGTON      CLOUDY    25   9  50 NE9       30.53F WCI  15
SAVANNAH       CLOUDY    27  10  50 NE8       30.54S WCI  18
$$

TNZ008-025-027-028-033-062-065-066-280700-
NORTH MIDDLE TENNESSEE

CITY           SKY/WX    TMP DP  RH WIND       PRES   REMARKS
NASHVILLE      CLOUDY    25   7  46 E9        30.58F WCI  15
CLARKSVILLE    CLOUDY    23  12  62 E7        30.57F WCI  15
COOKEVILLE     PTCLDY    21  10  63 N3        30.52F
CROSSVILLE     CLOUDY    20   9  62 NE8       30.48F WCI  10
$$

TNZ061-075-076-078-094-096-097-280700-
SOUTH MIDDLE TENNESSEE

CITY           SKY/WX    TMP DP  RH WIND       PRES   REMARKS
FAYETTEVILLE   MOCLDY    25  10  54 NE9         N/A  WCI  15
TULLAHOMA      PTCLDY    25  10  54 NE5       30.51F WCI  19
WINCHESTER     CLOUDY    27  14  59 NE6       30.51F WCI  20
COLUMBIA         N/A     25   9  50 NE6       30.53S WCI  18
SHELBYVILLE    PTCLDY    25  10  54 NE6       30.54F WCI  18
$$

TNZ017-018-042-046-047-280700-
NORTHEAST TENNESSEE

CITY           SKY/WX    TMP DP  RH WIND       PRES   REMARKS
TRI CITIES     CLEAR     17  11  77 N6        30.52F WCI   9
ELIZABETHTON   CLEAR     16  12  86 CALM      30.51F
$$

TNZ012-013-036-069-073-074-280700-
CENTRAL EAST TENNESSEE

CITY           SKY/WX    TMP DP  RH WIND       PRES   REMARKS
KNOXVILLE      MOCLDY    26  12  55 N7        30.53F WCI  18
OAK RIDGE      MOCLDY    27  10  49 NE3       30.55F
GATLINBURG     PTCLDY    19  18  93 CALM      30.52F
$$

TNZ083-085-099-280700-
SOUTHEAST TENNESSEE

CITY           SKY/WX    TMP DP  RH WIND       PRES   REMARKS
CHATTANOOGA    MOCLDY    31  12  45 N13       30.53S WCI  21
$$

SKY/WX REPORTED AS FAIR MEANS FEW OR NO CLOUDS BELOW
12 THOUSAND FEET.



USA.gov is the U.S. government's official web portal to all federal, state and local government web resources and services.